Regional Weather Roundup
Issued by NWS

Home | Current Version | Previous Version | Text Only | Print | Product List | Glossary On
Versions: 1 2 3 4 5 6 7 8 9 10 11 12 13 14 15 16 17 18 19 20 21 22 23 24 25 26 27 28 29 30 31 32 33 34 35 36 37 38 39 40 41 42 43 44 45 46 47 48 49 50
000
ASUS43 KTOP 291008
RWRKS

WEATHER ROUNDUP FOR KANSAS
NATIONAL WEATHER SERVICE GOODLAND KS
500 AM CDT SUN MAR 29 2015

NOTE:  "FAIR" INDICATES FEW OR NO CLOUDS BELOW 12,000 FEET WITH NO
SIGNIFICANT WEATHER AND/OR OBSTRUCTIONS TO VISIBILITY.

KSZ001>006-013>018-027>032-041>047-291100-
NORTHWEST KANSAS

CITY           SKY/WX    TMP DP  RH WIND       PRES   REMARKS
GOODLAND       PTCLDY    57  37  47 N26G35    29.97R
HAYS           MOCLDY    59  43  55 SW20      29.86R
HILL CITY      PTCLDY    57  42  57 W7        29.86F
RUSSELL        MOCLDY    58  44  60 NW21      29.89R
$$

KSZ061>065-074>080-084>089-291100-
SOUTHWEST KANSAS

CITY           SKY/WX    TMP DP  RH WIND       PRES   REMARKS
DODGE CITY     CLEAR     52  43  71 S13       29.85F
ELKHART          N/A     51  28  41 W10         N/A
GARDEN CITY    CLEAR     49  38  65 SW9       29.87R
GREAT BEND     CLEAR     54  41  62 SW16G22   29.82S
LIBERAL        CLEAR     52  36  54 S14       29.90S
PRATT          CLEAR     50  41  71 S14       29.86F
$$

KSZ066>073-081>083-090>101-291100-
SOUTHEAST KANSAS

CITY           SKY/WX    TMP DP  RH WIND       PRES   REMARKS
CHANUTE        CLEAR     42  39  89 SE12      29.95F
COFFEYVILLE    CLEAR     43  38  82 S13       29.97F
HUTCHINSON     CLEAR     51  42  71 S15       29.86F
MEDICINE LODGE   N/A     48  42  80 SE8       29.86F
NEWTON         CLEAR     46  37  71 S14       29.88F
PARSONS        CLEAR     44  38  79 S7        29.98F
WICHITA INTL   CLEAR     48  41  76 S13       29.88F
WICHITA JABRA  CLEAR     47  41  80 S15       29.88F
WICHITA MCCONL CLEAR     49  42  77 S18G24    29.88F
WINFIELD       CLEAR     46  41  82 S13       29.92F
$$

KSZ007>012-019>026-033>040-048>060-102>105-291100-
NORTHEAST KANSAS

CITY           SKY/WX    TMP DP  RH WIND       PRES   REMARKS
CONCORDIA      CLOUDY    47  41  80 NW6       29.89R
EMPORIA        CLEAR     43  39  86 S17       29.88F
LAWRENCE       PTCLDY    39  33  79 SE10      29.94F WCI  32
MANHATTAN      PTCLDY    48  41  76 S9        29.85F
MARYSVILLE     CLOUDY    43  36  75 W7        29.92R
OLATHE IND     PTCLDY    37  32  82 SE17      29.94F WCI  27
OLATHE EXE     PTCLDY    37  33  85 S16       29.94F WCI  28
SALINA         CLEAR     53  41  63 S17G26    29.81F
TOPEKA BILLARD PTCLDY    42  35  76 SE10      29.92F
TOPEKA FORBES  PTCLDY    43  36  76 SE14      29.90S
$$



USA.gov is the U.S. government's official web portal to all federal, state and local government web resources and services.